Printer-friendly version

IAU Minor Planet Center

Minor Planet Center

MPEC 2005-B52 : 2005 BX26

The following Minor Planet Electronic Circular may be linked-to from your own Web pages, but must not otherwise be redistributed electronically.


Read MPEC 2005-B51 Read MPEC 2005-B53


M.P.E.C. 2005-B52                                Issued 2005 Jan. 25, 17:37 UT

     The Minor Planet Electronic Circulars contain information on unusual
         minor planets and routine data on comets.  They are published
   on behalf of Commission 20 of the International Astronomical Union by the
          Minor Planet Center, Smithsonian Astrophysical Observatory,
                          Cambridge, MA 02138, U.S.A.

                  Supported in part by the Brinson Foundation
             Prepared using the Tamkin Foundation Computer Network

                              MPC@CFA.HARVARD.EDU
          URL http://cfa-www.harvard.edu/iau/mpc.html  ISSN 1523-6714

                                   2005 BX26

Observations:
     K05B26X*9C2005 01 17.34902 15 57 52.95 -23 45 19.6          21.1 R EB052809
     K05B26X 9C2005 01 17.35862 15 57 54.90 -23 45 23.8          21.0 R EB052809
     K05B26X 9C2005 01 17.37011 15 57 57.25 -23 45 27.9          21.2 R EB052809
     K05B26X 9C2005 01 18.36071 16 01 18.61 -23 52 43.4          21.6 R EB052809
     K05B26X 9C2005 01 18.36160 16 01 18.78 -23 52 43.5          21.1 R EB052809
     K05B26X 9C2005 01 18.36247 16 01 18.97 -23 52 44.3          21.7 R EB052809
     K05B26X 9C2005 01 18.36333 16 01 19.13 -23 52 44.4          21.3 R EB052809
     K05B26X 9C2005 01 20.36041016 08 03.126-24 06 23.31         21.4 R EB052809
     K05B26X 9C2005 01 20.36172016 08 03.411-24 06 23.84         21.3 R EB052809
     K05B26X 9C2005 01 20.37527716 08 06.076-24 06 28.93         21.2 R EB052809
     K05B26X 9C2005 01 20.37657916 08 06.396-24 06 29.58         21.5 R EB052809
     K05B26X 9C2005 01 21.34268 16 11 20.88 -24 12 38.5          21.3 R EB052809
     K05B26X 9C2005 01 21.34810 16 11 21.88 -24 12 40.4          21.4 R EB052809
     K05B26X 9C2005 01 24.35157716 21 21.763-24 29 56.44         21.5 R EB052809
     K05B26X 9C2005 01 24.35287916 21 22.040-24 29 56.95         21.3 R EB052809
     K05B26X 9C2005 01 24.35417916 21 22.301-24 29 57.38         21.5 R EB052809
     K05B26X 9C2005 01 24.35547916 21 22.574-24 29 57.90         21.2 R EB052809

Observer details:
809 European Southern Observatory, La Silla.  Observers A. Boattini,
    H. Boehnhardt.  Measurers A. Boattini, H. Scholl, H. Boehnhardt.  2.2-m
    f/5.9 reflector, 2.2-m f/5.9 reflector + CCD, 3.5-m f/11 New Technology
    Telescope + CCD, 3.5-m f/5.2 New Technology Telescope + CCD.

Orbital elements:
2005 BX26
Epoch 2005 Jan. 10.0 TT = JDT 2453380.5                 MPC
M   5.30172              (2000.0)            P               Q
n   0.21611852     Peri.  291.64369     -0.99559664     +0.01248286
a   2.7500551      Node   249.16937     +0.02223135     -0.93137749
e   0.5198235      Incl.    5.70481     -0.09106640     -0.36384082
P   4.56           H   18.5           G   0.15
From 17 observations 2005 Jan. 17-24.

Ephemeris:
2005 BX26                a,e,i = 2.75, 0.52, 6                   q = 1.3205
Date    TT    R. A. (2000) Decl.     Delta      r     Elong.  Phase     V
2005 01 20    16 06.83   -24 04.0    1.659    1.371    55.7    36.4    21.8
2005 01 30    16 39.81   -24 55.0    1.643    1.404    58.3    36.7    21.8
2005 02 09    17 11.15   -25 17.1    1.627    1.442    61.3    36.9    21.8
2005 02 19    17 40.40   -25 13.7    1.607    1.486    64.8    37.0    21.9
2005 03 01    18 07.23   -24 49.2    1.584    1.535    68.8    37.0    21.9
2005 03 11    18 31.39   -24 08.4    1.557    1.588    73.3    36.8    22.0
2005 03 21    18 52.64   -23 16.0    1.524    1.644    78.3    36.4    22.0
2005 03 31    19 10.82   -22 16.4    1.487    1.702    84.0    35.7    22.0
2005 04 10    19 25.76   -21 13.7    1.445    1.762    90.2    34.7    22.0
2005 04 20    19 37.24   -20 11.6    1.401    1.823    97.2    33.1    21.9
2005 04 30    19 45.07   -19 13.5    1.355    1.886   105.0    31.1    21.9
2005 05 10    19 49.03   -18 22.1    1.311    1.949   113.6    28.4    21.8
2005 05 20    19 48.97   -17 39.8    1.272    2.012   123.0    24.9    21.7
2005 05 30    19 44.96   -17 07.7    1.243    2.075   133.4    20.8    21.6
2005 06 09    19 37.32   -16 46.2    1.228    2.138   144.6    16.0    21.5
2005 06 19    19 26.86   -16 34.6    1.231    2.200   156.3    10.7    21.3
2005 06 29    19 14.85   -16 31.0    1.258    2.262   167.8     5.4    21.2
2005 07 09    19 02.73   -16 33.4    1.310    2.323   173.7     2.8    21.2
2005 07 19    18 51.93   -16 39.9    1.388    2.384   164.8     6.4    21.6

Timothy B. Spahr             (C) Copyright 2005 MPC           M.P.E.C. 2005-B52

Read MPEC 2005-B51 Read MPEC 2005-B53


Our Web policy. Index to the CBAT/MPC/ICQ pages.


Valid HTML 4.01!